Snowfall_Accumulation
0.0 0.0 0.0 0.0 0.0 0.0 0.0 0.0 0.0 0.0 0.0 0.0 0.0 0.0 0.0 0.0 0.0 0.0 0.0 0.0 0.0 0.0 0.0 0.0 0.0 0.0 0.0 0.0 0.0 0.0 0.0 0.0 0.0 0.0 0.0 0.0 0.0 0.0 0.0 0.0 0.0 0.0 0.0
0.0 0.0 0.0 0.0 0.0 0.0 0.0 0.0 0.0 0.0 0.0 0.0 0.0 0.0 0.0 0.0 0.0 0.0 0.0 0.0 0.0 0.0 0.0 0.0 0.0 0.0 0.0 0.0 0.0 0.0 0.0 0.0 0.0 0.0 0.0 0.0 0.0 0.0 0.0 0.0 0.0 0.0 0.0
0.0 0.0 0.0 0.0 0.0 0.0 0.0 0.0 0.0 0.0 0.0 0.0 0.0 0.0 0.0 0.0 0.0 0.0 0.0 0.0 0.0 0.0 0.0 0.0 0.0 0.0 0.0 0.0 0.0 0.0 0.0 0.0 0.0 0.0 0.0 0.0 0.0 0.0 0.0 0.0 0.0 0.0 0.0
0.0 0.0 0.0 0.0 0.0 0.0 0.0 0.0 0.0 0.0 0.0 0.0 0.0 0.0 0.0 0.0 0.0 0.0 0.0 0.0 0.0 0.0 0.0 0.0 0.0 0.0 0.0 0.0 0.0 0.0 0.0 0.0 0.0 0.0 0.0 0.1 0.1 0.3 0.2 0.3 0.6 0.5 0.5
0.0 0.0 0.0 0.0 0.0 0.0 0.0 0.0 0.0 0.0 0.0 0.0 0.0 0.0 0.0 0.0 0.0 0.0 0.0 0.0 0.0 0.0 0.0 0.0 0.0 0.0 nan nan 0.0 0.0 0.0 0.0 0.0 0.1 0.2 0.2 0.4 0.8 0.6 0.5 0.9 1.1 1.1
0.0 0.0 0.0 0.0 0.0 0.0 0.0 0.0 0.0 0.0 0.0 0.0 0.0 0.0 0.0 0.0 nan nan 0.0 0.0 0.0 0.0 0.0 0.0 0.0 0.0 0.0 nan nan nan nan 0.0 0.0 0.2 0.2 0.1 0.0 0.3 0.6 0.9 1.1 2.9 2.8
0.0 0.0 0.0 0.0 0.0 0.0 0.0 0.0 0.0 0.0 0.0 0.0 0.0 0.0 0.0 0.0 nan nan nan 0.0 0.0 0.0 0.0 0.0 0.0 0.0 0.0 0.0 nan nan nan nan nan 0.0 0.0 0.1 0.1 0.0 0.1 0.9 0.7 0.9 1.0
0.0 0.0 0.0 0.0 0.1 0.1 0.1 0.0 0.0 0.0 0.0 0.0 0.0 0.0 0.0 0.0 nan nan nan 0.0 0.0 0.0 0.0 0.0 0.0 0.0 0.0 0.0 0.0 0.0 0.0 0.0 0.0 0.0 0.0 0.0 0.0 0.0 0.0 0.0 0.1 0.6 1.9
0.0 0.0 0.0 0.0 0.1 0.1 0.1 0.1 0.0 0.0 0.0 0.0 0.0 0.0 0.0 0.0 nan nan 0.0 0.0 0.0 0.0 0.0 0.0 0.0 0.0 nan nan 0.0 0.1 0.3 0.1 nan nan nan nan nan nan nan 0.6 4.5 5.8 5.8
0.1 0.1 0.0 0.1 0.1 0.1 0.1 0.1 0.1 0.1 0.1 0.4 0.1 0.1 0.0 0.0 nan nan nan 0.2 0.1 0.4 0.1 0.1 0.0 0.0 nan nan 0.0 0.2 1.5 0.5 0.3 0.7 0.1 0.0 nan nan nan 0.0 0.7 4.6 4.6
0.1 0.1 0.1 0.1 0.1 0.0 0.1 0.1 0.1 0.1 0.1 0.2 0.2 0.2 0.1 0.1 0.0 nan nan 0.1 0.4 0.7 0.8 0.8 0.5 nan nan nan nan 0.1 0.3 0.4 1.4 1.7 1.7 1.5 1.0 0.8 1.1 0.6 0.2 0.8 4.2
0.4 0.4 0.4 0.3 0.1 0.1 0.2 0.2 0.5 0.2 0.3 0.5 0.6 0.8 0.9 0.2 nan nan nan nan nan 0.7 0.5 0.9 0.6 nan nan nan 0.3 nan nan 1.5 2.9 4.0 4.3 4.2 4.0 4.5 4.1 3.4 1.9 1.6 2.4
1.2 1.7 1.4 1.4 0.9 0.6 0.5 0.5 1.2 0.5 1.1 0.5 1.3 1.3 1.1 1.4 0.8 nan nan nan nan 1.1 0.8 0.7 nan nan nan nan nan nan 1.5 2.9 4.1 6.9 5.7 4.4 4.4 6.4 5.7 6.5 5.1 5.6 5.1
1.8 1.3 1.0 1.1 1.0 1.0 1.2 1.1 1.4 1.4 1.4 1.8 2.1 1.9 1.6 1.9 1.5 1.1 1.2 0.7 1.0 1.2 nan 1.0 nan 0.9 nan nan 1.7 2.1 3.7 4.0 4.9 5.8 6.2 6.2 6.1 8.0 9.9 7.0 9.5 9.2 13.6
1.3 1.1 1.0 1.4 0.9 1.0 1.4 1.2 1.3 0.6 1.2 2.3 2.7 2.0 3.3 3.7 2.6 0.9 1.8 2.6 2.3 2.4 3.2 4.5 5.1 4.3 4.9 5.0 6.3 6.8 6.6 7.5 9.2 9.2 11.5 11.3 11.5 11.6 12.9 10.8 12.2 13.8 14.7
0.8 1.9 1.4 1.4 1.4 1.4 1.6 1.9 nan nan nan nan nan 2.1 3.5 nan nan nan nan nan nan nan 8.8 10.8 7.3 6.7 6.5 7.3 9.4 10.1 9.7 8.1 9.2 10.8 12.6 12.8 14.2 14.3 14.7 15.8 15.0 16.6 18.2
1.2 0.8 1.8 1.9 1.8 2.5 3.1 2.9 4.1 3.0 nan nan nan nan nan nan nan nan nan nan nan nan 14.4 9.2 9.0 7.7 8.1 7.9 8.9 9.3 13.0 10.3 11.0 12.4 12.1 15.1 15.9 17.1 17.2 17.1 15.4 15.0 18.4
2.4 2.2 2.5 2.4 2.3 3.0 3.5 3.7 3.9 4.6 5.6 4.9 nan nan nan nan nan nan nan nan 14.6 nan 10.6 12.6 12.2 10.6 9.8 10.3 9.7 10.9 12.8 14.6 14.4 14.2 14.6 17.7 19.8 20.7 20.0 18.8 16.9 19.3 18.3
3.6 2.9 3.1 3.2 3.4 3.4 4.2 4.2 4.3 4.7 5.2 6.3 6.5 6.5 4.2 nan nan nan nan 9.2 13.8 12.9 12.5 13.2 11.4 12.3 11.6 11.7 12.3 15.0 15.0 17.6 17.7 20.3 20.1 21.5 20.7 21.0 20.8 17.4 15.8 10.4 11.2
4.8 3.6 3.7 5.1 5.1 4.9 4.0 5.2 5.3 5.4 6.3 7.0 7.4 7.0 8.1 8.0 12.2 13.3 11.6 13.6 13.5 12.5 11.4 12.5 13.2 14.8 15.9 15.9 16.8 17.2 19.4 21.7 20.8 21.5 21.6 20.9 20.0 20.9 17.3 19.9 18.6 17.1 18.0
6.0 5.9 3.7 5.7 7.0 7.5 7.8 7.2 6.4 7.8 7.3 7.7 6.6 5.6 nan 8.4 10.1 11.0 13.1 12.4 13.7 14.6 12.4 13.3 14.8 18.0 20.4 22.8 21.0 21.0 20.6 16.6 20.0 21.4 22.5 23.2 22.8 26.0 18.8 14.7 17.5 18.5 18.3
6.4 7.3 8.1 8.4 6.8 7.9 8.4 6.1 6.6 6.6 7.2 7.2 6.5 6.7 nan 7.6 7.9 8.4 9.0 11.3 12.6 12.4 13.7 16.4 17.7 20.0 18.6 18.6 18.8 18.1 16.7 19.4 20.9 20.9 19.9 20.9 23.1 21.2 20.7 16.4 16.6 15.4 18.2
5.9 5.7 6.0 6.3 6.2 5.2 8.4 8.6 9.7 9.2 8.5 8.9 8.1 8.6 9.2 10.7 9.1 8.7 11.6 12.3 10.6 10.7 11.7 12.1 11.6 12.4 11.4 13.8 12.8 13.1 15.5 17.4 18.0 22.2 18.6 20.7 20.8 22.4 20.6 19.1 17.5 19.0 18.0
6.1 6.7 6.6 7.8 8.6 8.8 10.8 11.7 10.1 5.6 10.0 10.1 13.2 10.9 7.3 8.7 11.1 8.7 8.4 9.7 8.3 13.7 10.5 11.6 9.8 9.8 11.2 16.7 20.6 20.2 21.8 22.9 23.2 22.4 21.8 19.1 19.2 16.6 18.1 19.7 16.2 15.5 14.0
7.7 8.1 8.5 8.5 11.6 10.1 9.8 11.7 8.6 10.7 11.9 9.1 10.9 8.3 8.2 7.7 8.6 10.7 9.5 8.4 9.7 9.3 8.2 8.2 8.3 8.8 9.4 10.5 14.5 17.3 17.7 4.9 14.0 5.3 21.0 17.5 20.2 20.4 20.5 18.4 17.0 15.3 13.6
6.9 7.4 8.0 8.3 8.6 9.0 9.7 9.5 9.8 7.8 9.9 10.1 9.3 9.1 8.0 8.4 8.0 9.3 9.4 9.7 8.5 8.3 8.7 9.1 9.0 8.4 8.3 9.1 10.0 6.1 4.6 4.3 17.5 4.8 19.7 18.5 20.4 19.3 19.2 19.7 18.9 18.2 15.5
Water_Equivalent
0.00 0.00 0.00 0.00 0.00 0.00 0.00 0.00 0.00 0.00 0.00 0.00 0.00 0.00 0.00 0.00 0.00 0.00 0.00 0.00 0.00 0.00 0.00 0.00 0.00 0.00 0.00 0.00 0.00 0.00 0.00 0.00 0.00 0.00 0.00 0.00 0.00 0.00 0.00 0.00 0.00 0.00 0.00
0.00 0.00 0.00 0.00 0.00 0.00 0.00 0.00 0.00 0.00 0.00 0.00 0.00 0.00 0.00 0.00 0.00 0.00 0.00 0.00 0.00 0.00 0.00 0.00 0.00 0.00 0.00 0.00 0.00 0.00 0.00 0.00 0.00 0.00 0.00 0.00 0.00 0.00 0.00 0.00 0.00 0.00 0.00
0.00 0.00 0.00 0.00 0.00 0.00 0.00 0.00 0.00 0.00 0.00 0.00 0.00 0.00 0.00 0.00 0.00 0.00 0.00 0.00 0.00 0.00 0.00 0.00 0.00 0.00 0.00 0.00 0.00 0.00 0.00 0.00 0.00 0.00 0.00 0.00 0.00 0.00 0.00 0.01 0.00 0.00 0.00
0.00 0.00 0.00 0.00 0.00 0.00 0.00 0.00 0.00 0.00 0.00 0.00 0.00 0.00 0.00 0.00 0.00 0.00 0.00 0.00 0.00 0.00 0.00 0.00 0.00 0.00 0.00 0.00 0.00 0.00 0.00 0.00 0.00 0.00 0.01 0.03 0.05 0.13 0.07 0.14 0.25 0.18 0.19
0.00 0.00 0.00 0.00 0.00 0.00 0.00 0.00 0.00 0.00 0.00 0.00 0.00 0.00 0.00 0.00 0.00 0.00 0.00 0.00 0.00 0.00 0.00 0.00 0.00 0.00 nan nan 0.00 0.00 0.00 0.00 0.01 0.04 0.07 0.09 0.17 0.30 0.23 0.22 0.35 0.43 0.43
0.00 0.00 0.00 0.00 0.00 0.00 0.00 0.00 0.00 0.00 0.00 0.00 0.00 0.00 0.00 0.00 nan nan 0.00 0.00 0.00 0.00 0.00 0.00 0.00 0.00 0.00 nan nan nan nan 0.00 0.00 0.08 0.07 0.05 0.01 0.14 0.23 0.37 0.45 1.08 0.96
0.00 0.02 0.00 0.02 0.01 0.00 0.01 0.00 0.00 0.00 0.00 0.00 0.00 0.00 0.00 0.00 nan nan nan 0.00 0.00 0.00 0.00 0.00 0.00 0.00 0.01 0.00 nan nan nan nan nan 0.00 0.00 0.02 0.02 0.00 0.02 0.36 0.27 0.37 0.41
0.00 0.00 0.00 0.00 0.04 0.05 0.06 0.01 0.00 0.00 0.01 0.00 0.00 0.00 0.00 0.00 nan nan nan 0.00 0.00 0.00 0.00 0.00 0.00 0.00 0.00 0.00 0.00 0.00 0.00 0.00 0.00 0.00 0.00 0.00 0.00 0.00 0.00 0.00 0.02 0.21 0.60
0.02 0.01 0.01 0.01 0.03 0.03 0.02 0.02 0.02 0.00 0.00 0.00 0.00 0.00 0.00 0.00 nan nan 0.00 0.00 0.00 0.00 0.00 0.00 0.00 0.00 nan nan 0.01 0.04 0.12 0.03 nan nan nan nan nan nan nan 0.22 1.81 2.17 1.54
0.03 0.03 0.02 0.02 0.02 0.02 0.03 0.04 0.04 0.03 0.04 0.16 0.03 0.03 0.01 0.01 nan nan nan 0.09 0.02 0.15 0.03 0.03 0.01 0.00 nan nan 0.01 0.06 0.60 0.17 0.14 0.26 0.06 0.01 nan nan nan 0.00 0.27 1.70 1.23
0.04 0.04 0.04 0.03 0.04 0.02 0.03 0.04 0.04 0.04 0.04 0.07 0.09 0.06 0.06 0.02 0.00 nan nan 0.04 0.17 0.29 0.31 0.32 0.21 nan nan nan nan 0.05 0.12 0.14 0.57 0.64 0.60 0.57 0.39 0.28 0.38 0.23 0.07 0.32 1.18
0.10 0.10 0.11 0.12 0.06 0.04 0.10 0.08 0.21 0.08 0.12 0.22 0.24 0.30 0.36 0.08 nan nan nan nan nan 0.27 0.22 0.36 0.23 nan nan nan 0.11 nan nan 0.53 1.12 1.42 1.28 1.17 1.03 1.07 0.98 0.75 0.41 0.38 0.50
0.30 0.49 0.44 0.42 0.32 0.25 0.18 0.19 0.49 0.22 0.44 0.20 0.50 0.46 0.37 0.42 0.32 nan nan nan nan 0.43 0.33 0.27 nan nan nan nan nan nan 0.50 0.95 1.28 1.79 1.34 0.96 0.94 1.09 0.90 0.99 0.76 0.87 0.82
0.54 0.32 0.26 0.31 0.30 0.34 0.48 0.43 0.55 0.56 0.54 0.67 0.75 0.67 0.50 0.54 0.49 0.42 0.47 0.28 0.34 0.49 nan 0.41 nan 0.38 nan nan 0.58 0.68 1.01 1.08 1.21 1.33 1.27 1.03 1.03 1.40 1.57 1.19 1.48 1.47 2.02
0.35 0.23 0.26 0.41 0.31 0.28 0.34 0.46 0.47 0.23 0.46 0.91 1.08 0.79 1.12 1.20 0.87 0.37 0.74 1.03 0.91 0.98 1.16 1.62 1.50 1.15 1.19 1.17 1.47 1.52 1.44 1.55 1.73 1.73 1.87 1.71 1.71 1.73 1.74 1.60 1.70 2.02 2.14
0.19 0.46 0.40 0.41 0.41 0.39 0.45 0.54 nan nan nan nan nan 0.80 1.27 nan nan nan nan nan nan nan 2.84 2.99 1.72 1.56 1.39 1.50 1.79 1.76 1.73 1.63 1.70 1.92 2.05 1.97 2.05 1.90 1.90 2.11 2.03 2.21 2.34
0.30 0.20 0.48 0.48 0.50 0.63 0.79 0.83 0.98 0.90 nan nan nan nan nan nan nan nan nan nan nan nan 4.50 2.54 2.26 1.79 1.77 1.64 1.81 1.82 1.86 1.69 1.55 2.00 1.88 2.03 2.13 2.30 2.35 2.24 1.98 1.88 2.42
0.52 0.71 0.65 0.64 0.65 0.78 0.88 0.96 1.02 1.14 1.36 1.22 nan nan nan nan nan nan nan nan 4.25 nan 3.32 3.48 3.09 2.58 2.21 2.08 1.87 1.86 1.88 1.96 1.85 1.91 2.01 2.52 2.80 2.97 2.76 2.57 2.20 2.59 2.40
0.78 0.72 0.77 0.83 0.90 0.91 1.07 1.02 1.04 1.13 1.22 1.49 1.59 1.75 1.32 nan nan nan nan 2.82 3.78 3.36 3.26 3.39 2.81 2.72 2.39 2.45 2.38 2.62 2.28 2.37 2.33 2.91 2.88 3.12 2.92 3.02 2.94 2.28 1.96 1.77 1.86
1.07 1.13 1.00 1.26 1.20 1.14 0.94 1.18 1.17 1.21 1.40 1.61 1.74 1.72 2.49 2.45 3.42 3.61 2.90 3.75 3.55 3.16 2.83 3.08 3.22 3.56 3.56 3.29 3.27 3.08 3.12 3.23 2.90 3.00 2.98 2.87 2.71 2.92 2.12 2.73 2.45 2.08 2.28
1.40 1.35 1.21 1.32 1.64 1.71 1.79 1.56 1.40 1.78 1.69 1.85 1.61 1.63 nan 2.10 2.36 2.59 3.09 2.90 3.24 3.48 2.88 3.13 3.33 4.21 4.37 4.82 4.01 3.85 3.59 2.42 2.91 3.16 3.37 3.29 3.19 3.86 2.44 1.66 2.26 2.46 2.40
1.48 1.70 1.79 1.89 1.50 1.68 1.82 1.33 1.48 1.49 1.45 1.37 1.28 1.51 nan 1.62 1.75 1.84 1.98 2.65 3.06 3.00 3.37 4.05 4.01 4.42 3.94 3.70 3.39 3.15 2.64 3.12 3.41 3.24 2.69 2.77 3.24 2.84 2.81 1.96 2.04 1.80 2.39
1.27 1.16 1.26 1.32 1.32 1.50 1.75 1.97 1.81 1.75 1.63 1.76 1.61 1.71 1.90 2.25 1.86 1.72 2.59 2.80 2.25 2.12 2.38 2.50 2.33 2.34 2.13 2.53 2.24 2.20 2.43 2.76 2.88 3.95 2.67 2.79 2.73 3.15 2.83 2.52 2.22 2.48 2.34
1.28 1.36 1.31 1.62 1.56 1.51 1.87 2.05 1.79 1.61 1.84 1.87 2.78 2.26 1.36 1.67 2.33 1.70 1.66 2.04 1.65 3.03 2.06 2.24 1.79 1.76 2.01 3.24 4.23 4.14 4.50 4.77 4.58 4.17 3.77 2.53 2.49 2.25 2.22 2.60 2.01 1.96 1.62
1.48 1.38 1.46 1.41 2.11 1.74 1.67 2.03 1.40 1.88 2.18 1.64 2.10 1.51 1.51 1.41 1.57 2.21 1.97 1.57 1.80 1.66 1.40 1.40 1.45 1.57 1.66 1.81 2.62 3.44 3.68 1.61 2.80 1.75 3.36 2.30 2.73 2.76 2.66 2.30 2.10 1.77 1.55
1.17 1.27 1.33 1.39 1.40 1.53 1.62 1.56 1.61 1.24 1.67 1.80 1.67 1.68 1.42 1.45 1.43 1.76 1.67 1.70 1.38 1.38 1.46 1.56 1.52 1.40 1.34 1.51 1.67 1.75 1.53 1.42 3.07 1.59 2.89 2.35 2.61 2.35 2.29 2.36 2.19 2.10 1.72
SL_Ratio
nan nan nan nan nan nan nan nan nan nan nan nan nan nan nan nan nan nan nan nan nan nan nan nan nan nan nan nan nan nan nan nan nan nan nan nan nan nan nan nan nan nan nan
nan nan nan nan nan nan nan nan nan nan nan nan nan nan nan nan nan nan nan nan nan nan nan nan nan nan nan nan nan nan nan nan nan nan nan nan nan nan nan nan nan nan nan
nan nan nan nan nan nan nan nan nan nan nan nan nan nan nan nan nan nan nan nan nan nan nan nan nan nan nan nan nan nan nan nan nan nan nan nan 3.3 nan 2.5 2.5 nan nan nan
nan nan nan nan nan nan nan nan nan nan nan nan nan nan nan nan nan nan nan nan nan nan nan nan nan nan nan nan nan nan nan nan nan nan 2.6 2.5 2.5 2.5 2.5 2.5 2.5 2.5 2.5
nan nan nan nan nan nan nan nan nan nan nan nan nan nan nan nan nan nan nan nan nan nan nan nan nan nan nan nan nan nan nan nan 2.3 2.5 2.5 2.5 2.5 2.6 2.5 2.5 2.5 2.5 2.5
nan nan nan nan nan nan nan nan nan nan nan nan nan nan nan nan nan nan nan nan nan nan nan nan nan nan nan nan nan nan nan nan nan 2.5 2.5 2.5 2.4 2.5 2.5 2.5 2.5 2.7 2.9
nan 2.6 2.9 2.5 2.5 2.5 2.7 nan nan nan nan nan nan nan nan nan nan nan nan nan nan nan nan nan nan nan 2.2 nan nan nan nan nan nan nan nan 2.6 2.5 2.1 2.5 2.5 2.5 2.5 2.5
nan nan nan nan 2.5 2.5 2.5 2.4 3.3 2.5 2.3 2.5 1.7 nan nan nan nan nan nan nan nan nan nan nan nan nan nan nan nan nan 2.0 5.0 nan nan nan nan nan nan nan 5.0 2.6 2.9 3.1
2.4 2.8 2.5 2.4 2.5 2.6 2.5 2.6 2.5 2.5 2.5 nan 2.5 nan nan nan nan nan nan nan nan 3.3 nan nan nan nan nan nan 2.5 2.5 2.5 2.5 nan nan nan nan nan nan nan 2.5 2.5 2.7 3.8
2.8 2.5 2.5 2.6 2.5 2.5 2.5 2.5 2.5 2.5 2.5 2.5 2.5 2.4 2.5 2.5 nan nan nan 2.5 2.5 2.5 2.5 2.5 2.7 nan nan nan 2.4 2.5 2.6 3.0 2.5 2.5 2.5 2.5 nan nan nan 2.5 2.5 2.7 3.7
3.0 2.7 2.5 2.5 2.5 2.6 2.6 2.5 2.5 2.5 2.5 2.5 2.5 2.5 2.5 2.4 2.9 nan nan 2.5 2.5 2.5 2.5 2.5 2.5 nan nan nan nan 2.5 2.5 2.6 2.5 2.6 2.8 2.6 2.7 2.8 2.8 2.7 2.6 2.6 3.5
3.7 3.4 3.2 2.7 2.5 2.5 2.5 2.5 2.5 2.5 2.5 2.5 2.5 2.7 2.6 2.5 nan nan nan nan nan 2.5 2.5 2.5 2.5 nan nan nan 2.5 nan nan 2.8 2.6 2.8 3.3 3.6 3.9 4.2 4.2 4.5 4.6 4.2 4.8
3.9 3.6 3.2 3.3 2.8 2.6 2.5 2.5 2.5 2.5 2.5 2.7 2.6 2.8 3.1 3.3 2.5 nan nan nan nan 2.5 2.5 2.5 nan nan nan nan nan nan 3.0 3.0 3.2 3.9 4.2 4.5 4.7 5.9 6.4 6.6 6.7 6.5 6.3
3.3 4.0 3.9 3.5 3.3 3.0 2.6 2.5 2.5 2.5 2.5 2.7 2.8 2.9 3.3 3.6 3.0 2.6 2.5 2.5 2.8 2.5 nan 2.5 nan 2.5 nan nan 2.9 3.1 3.7 3.7 4.1 4.4 4.9 6.0 5.9 5.7 6.3 5.9 6.5 6.2 6.7
3.8 4.8 3.9 3.4 2.9 3.5 4.1 2.6 2.7 2.9 2.5 2.5 2.5 2.6 2.9 3.1 3.0 2.5 2.5 2.5 2.5 2.5 2.8 2.8 3.4 3.7 4.1 4.2 4.3 4.5 4.6 4.8 5.3 5.3 6.2 6.6 6.7 6.7 7.4 6.8 7.2 6.8 6.8
4.4 4.2 3.4 3.3 3.4 3.5 3.5 3.5 nan nan nan nan nan 2.7 2.8 nan nan nan nan nan nan nan 3.1 3.6 4.3 4.3 4.6 4.9 5.3 5.7 5.6 5.0 5.4 5.6 6.1 6.5 7.0 7.5 7.7 7.5 7.4 7.5 7.8
4.1 4.1 3.8 4.0 3.6 3.9 4.0 3.5 4.2 3.3 nan nan nan nan nan nan nan nan nan nan nan nan 3.2 3.6 4.0 4.3 4.6 4.8 4.9 5.1 7.0 6.1 7.1 6.2 6.4 7.4 7.5 7.4 7.3 7.6 7.8 8.0 7.6
4.6 3.0 3.8 3.7 3.5 3.8 3.9 3.9 3.9 4.0 4.2 4.0 nan nan nan nan nan nan nan nan 3.4 nan 3.2 3.6 4.0 4.1 4.4 4.9 5.2 5.9 6.8 7.5 7.8 7.4 7.3 7.0 7.1 7.0 7.2 7.3 7.7 7.4 7.6
4.5 4.0 4.0 3.8 3.8 3.7 3.9 4.1 4.2 4.2 4.3 4.3 4.1 3.7 3.2 nan nan nan nan 3.3 3.7 3.8 3.8 3.9 4.0 4.5 4.9 4.8 5.2 5.7 6.6 7.4 7.6 7.0 7.0 6.9 7.1 7.0 7.1 7.6 8.1 5.9 6.0
4.5 3.2 3.7 4.0 4.2 4.3 4.3 4.4 4.5 4.5 4.5 4.4 4.2 4.1 3.2 3.3 3.6 3.7 4.0 3.6 3.8 4.0 4.0 4.0 4.1 4.1 4.5 4.8 5.1 5.6 6.2 6.7 7.2 7.2 7.2 7.3 7.4 7.2 8.1 7.3 7.6 8.2 7.9
4.2 4.4 3.0 4.3 4.3 4.4 4.4 4.6 4.6 4.4 4.3 4.1 4.1 3.4 nan 4.0 4.3 4.2 4.2 4.3 4.2 4.2 4.3 4.2 4.4 4.3 4.7 4.7 5.2 5.5 5.7 6.9 6.9 6.8 6.7 7.0 7.2 6.7 7.7 8.9 7.7 7.5 7.6
4.3 4.3 4.5 4.5 4.6 4.7 4.6 4.6 4.5 4.4 5.0 5.2 5.1 4.4 nan 4.7 4.5 4.6 4.5 4.2 4.1 4.1 4.1 4.0 4.4 4.5 4.7 5.0 5.6 5.7 6.3 6.2 6.1 6.4 7.4 7.6 7.1 7.4 7.4 8.4 8.1 8.5 7.6
4.6 4.9 4.8 4.8 4.7 3.5 4.8 4.4 5.3 5.3 5.2 5.1 5.0 5.0 4.8 4.8 4.9 5.1 4.5 4.4 4.7 5.1 4.9 4.8 5.0 5.3 5.4 5.4 5.7 6.0 6.4 6.3 6.2 5.6 7.0 7.4 7.6 7.1 7.3 7.6 7.9 7.7 7.7
4.8 4.9 5.0 4.8 5.5 5.9 5.8 5.7 5.7 3.5 5.5 5.4 4.7 4.8 5.3 5.2 4.7 5.1 5.1 4.7 5.1 4.5 5.1 5.2 5.5 5.5 5.6 5.2 4.9 4.9 4.8 4.8 5.1 5.4 5.8 7.6 7.7 7.4 8.2 7.6 8.0 7.9 8.7
5.2 5.9 5.8 6.0 5.5 5.8 5.9 5.8 6.2 5.7 5.5 5.6 5.2 5.5 5.4 5.5 5.4 4.8 4.8 5.3 5.4 5.6 5.8 5.8 5.7 5.6 5.7 5.8 5.5 5.0 4.8 3.0 5.0 3.0 6.2 7.6 7.4 7.4 7.7 8.0 8.1 8.6 8.8
5.9 5.9 6.0 6.0 6.2 5.9 6.0 6.1 6.0 6.3 5.9 5.6 5.6 5.4 5.6 5.8 5.6 5.3 5.6 5.7 6.1 6.0 6.0 5.8 5.9 6.0 6.2 6.1 6.0 3.5 3.0 3.0 5.7 3.0 6.8 7.9 7.8 8.2 8.4 8.3 8.6 8.7 9.0